CW7849 Weather Reports


Display with metric or nautical units.
time (UTC)temp
F
wind
direction
speed
MPH
gust
MPH
rain 1hr
in
rain 24hr
in
rain mn
in
humidity
%
barometer
mb
20260506191404 47 56 2.0 3.0 0.00 0.00 0.00 40 1011.9
20260506190904 48 56 1.0 3.0 0.00 0.00 0.00 40 1011.9
20260506190404 48 56 2.0 3.0 0.00 0.00 0.00 39 1011.9
20260506185904 48 55 2.0 3.0 0.00 0.00 0.00 38 1011.8
20260506185404 48 50 1.0 3.0 0.00 0.00 0.00 38 1011.9
20260506184904 48 50 1.0 3.0 0.00 0.00 0.00 40 1011.9
20260506184404 49 50 3.0 3.0 0.00 0.00 0.00 39 1011.9
20260506183404 49 49 2.0 3.0 0.00 0.00 0.00 39 1011.8
20260506182902 50 55 2.0 3.0 0.00 0.00 0.00 39 1011.7
20260506182403 50 62 2.0 3.0 0.00 0.00 0.00 38 1011.6
20260506181403 51 58 3.0 5.0 0.00 0.00 0.00 35 1011.6
20260506180903 51 54 3.0 5.0 0.00 0.00 0.00 35 1011.5
20260506180403 51 59 2.0 5.0 0.00 0.00 0.00 35 1011.5
20260506175904 52 32 2.0 3.0 0.00 0.00 0.00 34 1011.5
20260506175403 52 13 2.0 3.0 0.00 0.00 0.00 33 1011.5
20260506174903 52 19 3.0 6.0 0.00 0.00 0.00 34 1011.4
20260506174402 52 23 2.0 5.0 0.00 0.00 0.00 36 1011.2
20260506173904 52 31 2.0 7.0 0.00 0.00 0.00 36 1011.3
20260506173403 52 39 3.0 6.0 0.00 0.00 0.00 35 1011.3
20260506171903 53 48 4.0 9.0 0.00 0.00 0.00 33 1011.3
20260506171403 53 40 4.0 10.0 0.00 0.00 0.00 34 1011.3
20260506170903 53 41 7.0 12.0 0.00 0.00 0.00 32 1011.2
20260506170403 54 47 7.0 12.0 0.00 0.00 0.00 32 1011.2
20260506165903 55 37 3.0 5.0 0.00 0.00 0.00 31 1011.2
20260506164904 55 10 4.0 7.0 0.00 0.00 0.00 32 1011.2
20260506164403 55 13 4.0 8.0 0.00 0.00 0.00 31 1011.2
20260506163903 55 19 2.0 8.0 0.00 0.00 0.00 33 1011.2
20260506163403 55 19 6.0 10.0 0.00 0.00 0.00 32 1011.2
20260506162904 55 4 4.0 7.0 0.00 0.00 0.00 31 1011.2
20260506162403 55 18 4.0 8.0 0.00 0.00 0.00 31 1011.3
20260506161903 56 2 5.0 12.0 0.00 0.00 0.00 32 1011.3
20260506161403 55 340 3.0 9.0 0.00 0.00 0.00 32 1011.3
20260506160902 55 353 3.0 10.0 0.00 0.00 0.00 33 1011.3
20260506160403 55 337 3.0 9.0 0.00 0.00 0.00 32 1011.3
20260506155903 55 351 5.0 10.0 0.00 0.00 0.00 32 1011.2
20260506154903 55 336 5.0 9.0 0.00 0.00 0.00 32 1011.3
20260506154402 55 350 4.0 10.0 0.00 0.00 0.00 33 1011.2
20260506153903 55 8 4.0 12.0 0.00 0.00 0.00 34 1011.2
20260506153403 55 2 6.0 14.0 0.00 0.00 0.00 33 1011.2
20260506152903 55 13 3.0 12.0 0.00 0.00 0.00 34 1011.2
20260506152403 54 9 5.0 10.0 0.00 0.00 0.00 33 1011.3
20260506151403 55 18 6.0 12.0 0.00 0.00 0.00 32 1011.4
20260506150903 55 354 6.0 14.0 0.00 0.00 0.00 34 1011.4
20260506150403 55 353 7.0 14.0 0.00 0.00 0.00 32 1011.5
20260506145903 55 356 6.0 15.0 0.00 0.00 0.00 33 1011.6
20260506145403 55 347 6.0 12.0 0.00 0.00 0.00 32 1011.6
20260506144903 55 357 5.0 10.0 0.00 0.00 0.00 35 1011.7
20260506144403 55 3 8.0 14.0 0.00 0.00 0.00 34 1011.7
20260506143903 55 7 7.0 12.0 0.00 0.00 0.00 30 1011.8
20260506143403 55 3 7.0 10.0 0.00 0.00 0.00 33 1011.7
20260506142402 55 343 6.0 13.0 0.00 0.00 0.00 33 1011.7
20260506141902 55 345 6.0 12.0 0.00 0.00 0.00 34 1011.6
20260506140904 55 351 7.0 14.0 0.00 0.00 0.00 30 1011.7
20260506135903 56 335 6.0 13.0 0.00 0.00 0.00 32 1011.8
20260506134903 56 359 5.0 15.0 0.00 0.00 0.00 35 1012.0
20260506132903 57 328 3.0 7.0 0.00 0.00 0.00 26 1011.9
20260506132403 58 277 2.0 8.0 0.00 0.00 0.00 27 1012.0
20260506131903 57 273 3.0 6.0 0.00 0.00 0.00 22 1012.1
20260506131403 57 176 3.0 6.0 0.00 0.00 0.00 22 1012.2
20260506130903 58 201 5.0 8.0 0.00 0.00 0.00 24 1012.4
20260506130403 57 262 3.0 6.0 0.00 0.00 0.00 26 1012.4
20260506125903 57 143 3.0 9.0 0.00 0.00 0.00 21 1012.5
20260506125403 58 196 7.0 12.0 0.00 0.00 0.00 21 1012.5
20260506124903 57 225 6.0 9.0 0.00 0.00 0.00 21 1012.4
20260506124404 58 227 7.0 12.0 0.00 0.00 0.00 21 1012.4
20260506123903 58 157 8.0 12.0 0.00 0.00 0.00 20 1012.4
20260506123403 58 176 9.0 14.0 0.00 0.00 0.00 20 1012.5
20260506122903 57 202 7.0 10.0 0.00 0.00 0.00 24 1012.6
20260506122403 56 64 1.0 6.0 0.00 0.00 0.00 29 1012.6
20260506120903 56 18 1.0 3.0 0.00 0.00 0.00 27 1012.8
20260506115903 56 116 4.0 10.0 0.00 0.00 0.00 23 1012.9
20260506115404 56 130 10.0 14.0 0.00 0.00 0.00 22 1012.8
20260506114903 56 137 7.0 13.0 0.00 0.00 0.00 23 1012.8
20260506114403 56 166 3.0 9.0 0.00 0.00 0.00 26 1012.8
20260506113903 56 131 6.0 12.0 0.00 0.00 0.00 23 1012.9
20260506113402 57 71 4.0 9.0 0.00 0.00 0.00 23 1012.8
20260506112902 57 158 7.0 13.0 0.00 0.00 0.00 24 1012.8
20260506112403 56 129 10.0 13.0 0.00 0.00 0.00 25 1012.7
20260506111904 55 50 9.0 12.0 0.00 0.00 0.00 27 1012.8
20260506111404 55 63 7.0 15.0 0.00 0.00 0.00 25 1012.9
20260506105904 55 60 6.0 8.0 0.00 0.00 0.00 26 1013.1
20260506105403 55 172 1.0 6.0 0.00 0.00 0.00 25 1013.0
20260506104904 56 181 6.0 12.0 0.00 0.00 0.00 24 1013.1
20260506104403 56 94 11.0 16.0 0.00 0.00 0.00 26 1013.2
20260506103403 54 62 5.0 12.0 0.00 0.00 0.00 25 1013.2
20260506102903 54 145 7.0 13.0 0.00 0.00 0.00 25 1013.2
20260506102404 55 134 3.0 13.0 0.00 0.00 0.00 27 1013.2
20260506101903 55 70 9.0 12.0 0.00 0.00 0.00 26 1013.3
20260506101403 55 103 6.0 9.0 0.00 0.00 0.00 25 1013.5
20260506100903 55 224 5.0 8.0 0.00 0.00 0.00 28 1013.4
20260506100403 55 87 7.0 10.0 0.00 0.00 0.00 26 1013.5
20260506095903 54 121 3.0 6.0 0.00 0.00 0.00 27 1013.5
20260506094403 54 167 7.0 13.0 0.00 0.00 0.00 26 1013.4
20260506093903 54 103 5.0 13.0 0.00 0.00 0.00 29 1013.4
20260506093403 53 82 8.0 12.0 0.00 0.00 0.00 27 1013.4
20260506092903 53 95 2.0 6.0 0.00 0.00 0.00 29 1013.4
20260506091904 53 119 6.0 9.0 0.00 0.00 0.00 27 1013.5
20260506091404 53 156 6.0 12.0 0.00 0.00 0.00 26 1013.4
20260506085903 53 172 7.0 12.0 0.00 0.00 0.00 25 1013.5
20260506085405 52 110 7.0 13.0 0.00 0.00 0.00 29 1013.5
20260506084903 52 126 5.0 9.0 0.00 0.00 0.00 29 1013.5
20260506084403 52 161 4.0 9.0 0.00 0.00 0.00 26 1013.6
20260506083403 52 173 9.0 18.0 0.00 0.00 0.00 31 1013.6
20260506082404 52 100 7.0 12.0 0.00 0.00 0.00 31 1013.7
20260506080903 51 164 7.0 13.0 0.00 0.00 0.00 32 1013.6
20260506080403 51 170 4.0 9.0 0.00 0.00 0.00 33 1013.6
20260506072403 50 143 7.0 12.0 0.00 0.00 0.00 37 1013.5
20260506071903 50 137 8.0 12.0 0.00 0.00 0.00 38 1013.4
20260506071403 50 150 5.0 12.0 0.00 0.00 0.00 40 1013.5
20260506070403 49 136 7.0 12.0 0.00 0.00 0.00 41 1013.4
20260506062404 46 137 5.0 8.0 0.00 0.00 0.00 50 1013.5
20260506061903 46 143 6.0 9.0 0.00 0.00 0.00 52 1013.5
20260506061404 45 149 3.0 6.0 0.00 0.00 0.00 54 1013.5
20260506050903 37 63 1.0 2.0 0.00 0.00 0.00 76 1013.7
20260506044403 33 63 2.0 2.0 0.00 0.00 0.00 83 1013.4
20260506043404 31 63 0.0 0.0 0.00 0.00 0.00 86 1013.4
20260506042903 30 63 0.0 0.0 0.00 0.00 0.00 86 1013.5
20260506042404 29 63 0.0 1.0 0.00 0.00 0.00 85 1013.5
20260506041903 29 63 0.0 1.0 0.00 0.00 0.00 85 1013.5
20260506041403 29 63 1.0 2.0 0.00 0.00 0.00 85 1013.4
20260506040903 28 63 2.0 3.0 0.00 0.00 0.00 86 1013.5
20260506040404 28 63 2.0 3.0 0.00 0.00 0.00 86 1013.4
20260506035904 27 78 2.0 3.0 0.00 0.00 0.00 86 1013.4
20260506035403 26 95 0.0 2.0 0.00 0.00 0.00 86 1013.4
20260506034904 25 95 0.0 0.0 0.00 0.00 0.00 85 1013.4
20260506034404 25 95 0.0 0.0 0.00 0.00 0.00 85 1013.4
20260506033904 25 95 0.0 0.0 0.00 0.00 0.00 85 1013.4
20260506033404 25 95 0.0 1.0 0.00 0.00 0.00 85 1013.4
20260506032903 25 95 1.0 3.0 0.00 0.00 0.00 84 1013.4
20260506031905 26 95 1.0 2.0 0.00 0.00 0.00 84 1013.3
20260506031404 26 95 2.0 3.0 0.00 0.00 0.00 83 1013.3
20260506030903 26 95 2.0 3.0 0.00 0.00 0.00 83 1013.3
20260506030404 26 95 2.0 3.0 0.00 0.00 0.00 83 1013.3
20260506025903 26 95 1.0 3.0 0.00 0.00 0.00 82 1013.3
20260506025403 26 131 1.0 2.0 0.00 0.00 0.00 82 1013.3
20260506024904 27 131 2.0 3.0 0.00 0.00 0.00 83 1013.3
20260506024404 27 148 2.0 3.0 0.00 0.00 0.00 84 1013.3
20260506023904 26 153 0.0 2.0 0.00 0.00 0.00 85 1013.3
20260506023403 26 154 3.0 5.0 0.00 0.00 0.00 85 1013.3
20260506022403 25 69 1.0 2.0 0.00 0.00 0.00 84 1013.1
20260506021904 25 69 1.0 2.0 0.00 0.00 0.00 84 1013.1
20260506021403 25 69 1.0 3.0 0.00 0.00 0.00 84 1013.1
20260506020404 25 69 2.0 3.0 0.00 0.00 0.00 84 1013.1
20260506015903 25 69 2.0 3.0 0.00 0.00 0.00 83 1013.0
20260506014904 25 69 2.0 3.0 0.00 0.00 0.00 82 1012.9
20260506014403 25 89 2.0 3.0 0.00 0.00 0.00 83 1012.9
20260506013903 25 89 1.0 3.0 0.00 0.00 0.00 82 1013.0
20260506013404 25 89 2.0 3.0 0.00 0.00 0.00 83 1013.0
20260506012903 25 89 3.0 3.0 0.00 0.00 0.00 82 1013.0
20260506012404 25 89 2.0 3.0 0.00 0.00 0.00 82 1013.0
20260506011403 26 74 0.0 0.0 0.00 0.00 0.00 82 1012.9
20260506010903 26 74 0.0 1.0 0.00 0.00 0.00 82 1012.8
20260506010403 26 74 0.0 1.0 0.00 0.00 0.00 81 1012.8
20260506005904 26 74 1.0 2.0 0.00 0.00 0.00 81 1012.8
20260506004903 26 74 1.0 2.0 0.00 0.00 0.00 81 1012.8
20260506004403 26 56 1.0 2.0 0.00 0.00 0.00 80 1012.7
20260506003905 27 56 1.0 2.0 0.00 0.00 0.00 80 1012.8
20260506003404 27 56 1.0 2.0 0.00 0.00 0.00 80 1012.8
20260506002903 27 56 0.0 0.0 0.00 0.00 0.00 79 1012.8
20260506002403 27 56 1.0 2.0 0.00 0.00 0.00 79 1012.8
20260506001904 28 56 0.0 1.0 0.00 0.00 0.00 80 1012.8
20260506001403 28 56 1.0 2.0 0.00 0.00 0.00 80 1012.8
20260506000903 28 56 2.0 3.0 0.00 0.00 0.00 80 1012.8
20260506000404 27 56 3.0 3.0 0.00 0.00 0.00 80 1012.9
20260505235904 27 59 2.0 3.0 0.00 0.00 0.00 79 1012.8
20260505235404 27 73 2.0 3.0 0.00 0.00 0.00 77 1012.8
20260505234904 27 73 2.0 3.0 0.00 0.00 0.00 76 1012.8
20260505233404 28 73 1.0 2.0 0.00 0.00 0.00 74 1012.9
20260505232904 28 73 2.0 3.0 0.00 0.00 0.00 73 1013.0
20260505231904 29 82 1.0 2.0 0.00 0.00 0.00 73 1013.0
20260505230403 30 82 2.0 3.0 0.00 0.00 0.00 72 1013.1
20260505225904 30 75 2.0 3.0 0.00 0.00 0.00 72 1013.0
20260505225404 30 75 1.0 2.0 0.00 0.00 0.00 72 1013.0
20260505224903 30 74 1.0 2.0 0.00 0.00 0.00 71 1013.0
20260505224404 30 74 1.0 3.0 0.00 0.00 0.00 71 1013.0
20260505223904 31 66 2.0 3.0 0.00 0.00 0.00 71 1013.1
20260505223404 31 101 2.0 3.0 0.00 0.00 0.00 71 1013.1
20260505222904 31 103 2.0 3.0 0.00 0.00 0.00 71 1013.1
20260505222404 31 77 2.0 3.0 0.00 0.00 0.00 71 1013.1
20260505221905 31 28 0.0 2.0 0.00 0.00 0.00 71 1013.1
20260505221405 31 28 1.0 2.0 0.00 0.00 0.00 70 1013.1
20260505215403 31 28 1.0 1.0 0.00 0.00 0.00 69 1013.0
20260505214904 31 28 0.0 1.0 0.00 0.00 0.00 68 1013.1
20260505214403 32 28 1.0 2.0 0.00 0.00 0.00 68 1013.1
20260505213904 32 28 1.0 2.0 0.00 0.00 0.00 67 1013.1
20260505212904 32 28 1.0 3.0 0.00 0.00 0.00 66 1013.0
20260505212404 32 352 2.0 3.0 0.00 0.00 0.00 67 1012.9
20260505211904 32 352 1.0 2.0 0.00 0.00 0.00 66 1012.9
20260505211403 33 352 1.0 2.0 0.00 0.00 0.00 64 1012.8
20260505210903 33 352 1.0 2.0 0.00 0.00 0.00 64 1012.7
20260505210403 33 352 1.0 2.0 0.00 0.00 0.00 64 1012.7
20260505205904 33 352 1.0 2.0 0.00 0.00 0.00 64 1012.6
20260505205404 34 351 0.0 2.0 0.00 0.00 0.00 63 1012.5
20260505204903 34 352 0.0 1.0 0.00 0.00 0.00 63 1012.4
20260505204403 34 352 1.0 1.0 0.00 0.00 0.00 64 1012.5
20260505203904 34 352 1.0 2.0 0.00 0.00 0.00 62 1012.4
20260505202904 35 338 1.0 2.0 0.00 0.00 0.00 58 1012.4
20260505202403 36 338 1.0 2.0 0.00 0.00 0.00 58 1012.4
20260505201904 36 308 0.0 0.0 0.00 0.00 0.00 57 1012.4
20260505201404 36 308 0.0 0.0 0.00 0.00 0.00 55 1012.4
20260505200904 37 308 0.0 1.0 0.00 0.00 0.00 54 1012.3
20260505200404 37 308 1.0 2.0 0.00 0.00 0.00 53 1012.3
20260505195904 38 308 0.0 0.0 0.00 0.00 0.00 51 1012.2
20260505195403 39 308 0.0 0.0 0.00 0.00 0.00 48 1012.2
20260505194404 40 308 0.0 0.0 0.00 0.00 0.00 46 1012.2
20260505193903 41 308 0.0 0.0 0.00 0.00 0.00 46 1012.2
20260505193404 41 308 0.0 0.0 0.00 0.00 0.00 45 1012.1
20260505192902 41 308 0.0 1.0 0.00 0.00 0.00 44 1012.1
20260505192402 42 308 0.0 0.0 0.00 0.00 0.00 43 1012.0